Regional Weather Roundup
Issued by NWS

Current Version | Previous Version | Text Only | Print | Product List | Glossary On
Versions: 1 2 3 4 5 6 7 8 9 10 11 12 13 14 15 16 17 18 19 20 21 22 23 24 25 26 27 28 29 30 31 32 33 34 35 36 37 38 39 40 41 42 43 44 45 46 47 48 49 50
729
ASUS43 KMKX 250700
RWRWI

WISCONSIN REGIONAL WEATHER ROUNDUP
NATIONAL WEATHER SERVICE MILWAUKEE/SULLIVAN WI
200 AM CDT SUN AUG 25 2019

NOTE: "FAIR" INDICATES FEW OR NO CLOUDS BELOW 12,000 FEET WITH NO
SIGNIFICANT WEATHER AND/OR OBSTRUCTIONS TO VISIBILITY.

WIZ001-002-006>008-014>016-023>028-250800-
NORTHWEST WISCONSIN

CITY           SKY/WX    TMP DP  RH WIND       PRES   REMARKS
SUPERIOR ARPT  CLOUDY    46  46  99 CALM      30.12S FOG
ASHLAND        CLOUDY    52  51  97 CALM      30.16S
HAYWARD        CLOUDY    61  54  77 SE8       30.16S
SIREN          CLOUDY    57  54  89 CALM      30.14
CUMBERLAND     CLOUDY    59  54  82 SE3       30.16R
RICE LAKE      CLOUDY    62  46  56 SE5       30.16S
CHETEK         CLOUDY    60  56  86 SE8       30.16S
LADYSMITH      CLOUDY    60  55  83 SE5       30.20R
EAU CLAIRE     NOT AVBL
MENOMONIE      CLOUDY    57  54  89 SE5       30.15S
NEW RICHMOND   CLOUDY    59  53  81 SE3       30.14S
OSCEOLA        CLOUDY    61  56  84 SE5       30.15F
$$

WIZ003>005-009-010-017-018-250800-
NORTH CENTRAL WISCONSIN

CITY           SKY/WX    TMP DP  RH WIND       PRES   REMARKS
MANITOWISH WTR CLOUDY    58  55  88 S6        30.21S
ARBOR VITAE    MOCLDY    58  54  89 S6        30.21F
WOODRUFF       MOCLDY    58  54  89 S6        30.21F
RHINELANDER    FAIR      52  50  93 SE5       30.23S
EAGLE RIVER    FAIR      54  52  94 S6        30.22S
LAND O LAKES   FAIR      51  50  97 CALM      30.24S
PHILLIPS       CLOUDY    58  54  85 S7        30.20S
TOMAHAWK       FAIR      51  49  95 CALM      30.23R
MEDFORD        FAIR      53  50  90 SE3       30.20S
MERRILL        FAIR      53  51  93 SE3       30.22S
$$

WIZ029-030-035-036-043>047-250800-
CENTRAL WISCONSIN

CITY           SKY/WX    TMP DP  RH WIND       PRES   REMARKS
WAUSAU         FAIR      53  51  93 E6        30.19F
MOSINEE        FAIR      52  52 100 E5        30.22S
MARSHFIELD     FAIR      53  49  86 SE6       30.19S
STEVENS POINT  FAIR      50  50 100 E3        30.21S
WAUPACA        FAIR      54  53  97 CALM      30.21S
WAUTOMA        FAIR      52  50  93 CALM      30.21S
WISC RAPIDS    FAIR      54  49  83 SE5       30.20F
CAMP DOUGLAS   FAIR      48  48 100 CALM      30.19S
$$

WIZ011>013-019>022-031-037>040-048>050-250800-
NORTHEAST WISCONSIN

CITY           SKY/WX    TMP DP  RH WIND       PRES   REMARKS
ANTIGO         FAIR      49  49 100 E5        30.22F
SHAWANO        FAIR      57  53  85 SE5       30.21F
OCONTO         FAIR      50  49  97 CALM      30.21F
STURGEON BAY   FAIR      57  55  93 E3        30.23F
GREEN BAY      FAIR      53  51  93 CALM      30.21F
MANITOWOC      FAIR      54  53  97 CALM      30.21F
APPLETON       FAIR      59  48  67 E5        30.19F
CLINTONVILLE   FAIR      50  49  94 CALM      30.21F FOG
OSHKOSH        FAIR      58  54  86 SE3       30.20F
$$

WIZ032>034-041-042-053>061-250800-
SOUTHWEST WISCONSIN

CITY           SKY/WX    TMP DP  RH WIND       PRES   REMARKS
LA CROSSE      MOCLDY    65  51  60 SE15      30.15F
SPARTA         FAIR      58  51  77 SE8       30.18S
VIROQUA        FAIR      55  55  99 SE6       30.18F
BOSCOBEL       FAIR      61  52  72 SE8       30.17F
PRAIRIE DU CHI FAIR      60  52  75 SE3       30.15F
PLATTEVILLE    FAIR      56  56  97 E7        30.17F
$$

WIZ056-057-062-063-064-067-068-250800-
SOUTH CENTRAL WISCONSIN

CITY           SKY/WX    TMP DP  RH WIND       PRES   REMARKS
REEDSBURG      FAIR      54  54 100 CALM      30.18F
BARABOO/DELLS  FAIR      56  51  84 SE6       30.18F
LONE ROCK      FAIR      56  52  86 E3        30.17F
MINERAL POINT  FAIR      57  55  94 E5        30.18F
MADISON        FAIR      54  51  90 CALM      30.18F
MIDDLETON      MOCLDY    61  52  73 SE6       30.19F
WATERTOWN      FAIR      54  54 100 CALM      30.18F
MONROE         MOCLDY    57  52  84 E6        30.17F
JANESVILLE     FAIR      55  55 100 CALM      30.18F
$$

WIZ051-052-058>065-066-070>072-250800-
SOUTHEAST WISCONSIN

CITY           SKY/WX    TMP DP  RH WIND       PRES   REMARKS
MILWAUKEE      MOCLDY    68  57  68 SE9       30.18F
WAUKESHA       CLOUDY    54  52  94 CALM      30.20F
MILWAUKEE/TIMM MOCLDY    57  52  82 CALM      30.20F
RACINE         CLOUDY    70  54  56 SE13G18   30.19F
KENOSHA        FAIR      67  55  65 SE7       30.18F
FOND DU LAC    FAIR      52  48  86 CALM      30.20F
SHEBOYGAN      FAIR      53  50  89 CALM      30.20F
WEST BEND      FAIR      50  50 100 CALM      30.21S
JUNEAU         FAIR      53  51  90 CALM      30.21F
$$

LSZ147-162-250800-
LAKE SUPERIOR

STATION/POSITION TIME  TEMP    WIND        PRES    WAVE
                       AIR SEA DIR/SP/G            HT/PER
                 (UTC) (F)     (DEG/KT/KT) (MB)    (FT/S)
W MID LAKE BUOY  0550   65 63  160/  8/  8 1021.1F   1/ 4
DEVILS ISLAND    0600   64     150/  8/ 11 1021.0F
SAXON HARBOR     0630   60     190/  2/  6 1020.7S
$$

LMZ867-665-643>646-250800-
LAKE MICHIGAN

STATION/POSITION TIME  TEMP    WIND        PRES    WAVE
                       AIR SEA DIR/SP/G            HT/PER
                 (UTC) (F)     (DEG/KT/KT) (MB)    (FT/S)
S GREEN BAY BUOY 0630   72 70  120/ 10/ 12 1023.4F
N MID LAKE BUOY  0640   67     160/ 16/ 19 1023.9S
NORTHPORT PIER   0640   63     140/  2/  3 1023.4S
KEWAUNEE LAKESHO 0624   67     120/ 13/ 16 1022.7
SHEBOYGAN LAKESH 0600   68     110/ 15/ 16 1023.1F
PORT WASHINGTON  0640   70     130/ 13/ 15 1023.0F
ATWATER BUOY     0630   70 68  130/ 12/ 16 1022.5F   2/ 4
S MID LAKE BUOY  0640   68 72  140/ 17/ 19 1022.7F
KENOSHA   LAKESH 0600   71     150/ 16/ 19 1022.0
$$

TC  - TEMPERATURE IN CELSIUS
VSB - VISIBILITY IN STATUTE MILES
WCI - WIND CHILL INDEX
HX  - HEAT INDEX





USA.gov is the U.S. government's official web portal to all federal, state and local government web resources and services.